FFT824 KGEG-PAWG

Flight info

Callsign FFT824
Flight time N/A
Altitude 32000
Route GETNG Q140 WOBED DISCO Q902 DOOZI
Aircraft A320/M-SDE3FGHIRWY/LB1

Departure

Time N/A
Airport Spokane International Airport (KGEG)

Arrival

Time 2026-04-29 20:10
Airport Wrangell Airport (PAWG)
Time Latitude Longitude Altitude Speed Heading
2026-04-29 18:24 48.59452 -122.68171 34349 ft 429 kts 281°
2026-04-29 18:24 48.59751 -122.75708 34352 ft 429 kts 280°
2026-04-29 18:25 48.60363 -122.84533 34352 ft 419 kts 290°
2026-04-29 18:25 48.61888 -122.92393 34355 ft 416 kts 292°
2026-04-29 18:26 48.63536 -123.00766 34348 ft 416 kts 292°
2026-04-29 18:26 48.65162 -123.09153 34353 ft 416 kts 292°
2026-04-29 18:27 48.66780 -123.17544 34341 ft 415 kts 292°
2026-04-29 18:27 48.68402 -123.25930 34347 ft 415 kts 292°
2026-04-29 18:28 48.70015 -123.34313 34340 ft 415 kts 292°
2026-04-29 18:28 48.71614 -123.42701 34333 ft 415 kts 292°
2026-04-29 18:29 48.73945 -123.50553 34320 ft 406 kts 309°
2026-04-29 18:29 48.77463 -123.57191 34321 ft 405 kts 313°
2026-04-29 18:30 48.81032 -123.63811 34323 ft 406 kts 313°
2026-04-29 18:30 48.84601 -123.70461 34327 ft 407 kts 313°
2026-04-29 18:31 48.88184 -123.77119 34338 ft 407 kts 313°
2026-04-29 18:31 48.91770 -123.83785 34341 ft 408 kts 312°
2026-04-29 18:32 48.95346 -123.90473 34337 ft 408 kts 312°
2026-04-29 18:32 48.96102 -123.91888 34349 ft 408 kts 312°
2026-04-29 18:33 48.99049 -123.97406 34349 ft 408 kts 312°
2026-04-29 18:33 49.02617 -124.04123 34348 ft 408 kts 312°
2026-04-29 18:34 49.05582 -124.09725 34346 ft 408 kts 312°
2026-04-29 18:34 49.09759 -124.17592 34343 ft 408 kts 312°
2026-04-29 18:35 49.13320 -124.24328 34340 ft 408 kts 312°
2026-04-29 18:35 49.16883 -124.31098 34340 ft 409 kts 311°
2026-04-29 18:36 49.20418 -124.37821 34343 ft 409 kts 311°
2026-04-29 18:36 49.23982 -124.44600 34348 ft 409 kts 311°
2026-04-29 18:37 49.27538 -124.51397 34349 ft 409 kts 311°
2026-04-29 18:37 49.31087 -124.58210 34352 ft 409 kts 311°
2026-04-29 18:38 49.34636 -124.65026 34354 ft 409 kts 311°
2026-04-29 18:38 49.38175 -124.71857 34361 ft 409 kts 311°
2026-04-29 18:39 49.41716 -124.78700 34361 ft 409 kts 311°
2026-04-29 18:39 49.45258 -124.85551 34363 ft 409 kts 311°
2026-04-29 18:40 49.48789 -124.92419 34360 ft 409 kts 311°
2026-04-29 18:40 49.52318 -124.99286 34368 ft 410 kts 311°
2026-04-29 18:41 49.59344 -125.13029 34362 ft 410 kts 310°
2026-04-29 18:42 49.62864 -125.19941 34356 ft 409 kts 310°
2026-04-29 18:42 49.66378 -125.26861 34359 ft 410 kts 310°
2026-04-29 18:43 49.69883 -125.33795 34351 ft 410 kts 310°
2026-04-29 18:43 49.73388 -125.40752 34350 ft 410 kts 310°
2026-04-29 18:44 49.76892 -125.47709 34346 ft 410 kts 310°
2026-04-29 18:44 49.80386 -125.54680 34351 ft 410 kts 310°
2026-04-29 18:45 49.83874 -125.61656 34346 ft 410 kts 310°
2026-04-29 18:45 49.87357 -125.68636 34344 ft 410 kts 309°
2026-04-29 18:46 49.90839 -125.75629 34338 ft 410 kts 309°
2026-04-29 18:46 49.94320 -125.82634 34333 ft 409 kts 309°
2026-04-29 18:47 49.97793 -125.89651 34328 ft 409 kts 309°
2026-04-29 18:47 50.01258 -125.96679 34331 ft 410 kts 309°
2026-04-29 18:48 50.04724 -126.03708 34334 ft 409 kts 309°
2026-04-29 18:48 50.08189 -126.10751 34337 ft 410 kts 309°
2026-04-29 18:49 50.11636 -126.17795 34323 ft 409 kts 309°
2026-04-29 18:49 50.15083 -126.24852 34316 ft 409 kts 309°
2026-04-29 18:50 50.18401 -126.31661 34326 ft 410 kts 309°
2026-04-29 18:50 50.21841 -126.38745 34333 ft 410 kts 308°
2026-04-29 18:51 50.25278 -126.45845 34338 ft 409 kts 308°
2026-04-29 18:51 50.28715 -126.52944 34348 ft 410 kts 308°
2026-04-29 18:52 50.32150 -126.60051 34352 ft 409 kts 308°
2026-04-29 18:52 50.35574 -126.67176 34354 ft 410 kts 308°
2026-04-29 18:53 50.38995 -126.74319 34363 ft 410 kts 308°
2026-04-29 18:53 50.42410 -126.81471 34365 ft 410 kts 308°
2026-04-29 18:54 50.45828 -126.88636 34368 ft 410 kts 308°
2026-04-29 18:54 50.49241 -126.95821 34376 ft 410 kts 308°
2026-04-29 18:55 50.52646 -127.03011 34383 ft 410 kts 308°
2026-04-29 18:55 50.56061 -127.10215 34384 ft 411 kts 307°
2026-04-29 18:56 50.59474 -127.17430 34385 ft 411 kts 307°
2026-04-29 18:56 50.62861 -127.24619 34385 ft 411 kts 307°
2026-04-29 18:57 50.66256 -127.31881 34385 ft 412 kts 307°
2026-04-29 18:57 50.70364 -127.38102 34380 ft 412 kts 325°
2026-04-29 18:58 50.75397 -127.42522 34381 ft 414 kts 329°
2026-04-29 18:58 50.80422 -127.46864 34381 ft 415 kts 329°
2026-04-29 18:59 50.85485 -127.51254 34381 ft 415 kts 329°
2026-04-29 18:59 50.90562 -127.55645 34381 ft 416 kts 329°
2026-04-29 19:00 50.95648 -127.60042 34384 ft 416 kts 329°
2026-04-29 19:00 51.00734 -127.64456 34383 ft 417 kts 329°
2026-04-29 19:01 51.05825 -127.68902 34385 ft 418 kts 329°
2026-04-29 19:01 51.09305 -127.71953 34382 ft 418 kts 329°
2026-04-29 19:02 51.13540 -127.75659 34385 ft 418 kts 329°
2026-04-29 19:02 51.19505 -127.80878 34388 ft 419 kts 328°
2026-04-29 19:03 51.24412 -127.85195 34396 ft 419 kts 328°
2026-04-29 19:03 51.29514 -127.89703 34397 ft 419 kts 328°
2026-04-29 19:04 51.34625 -127.94227 34390 ft 420 kts 328°
2026-04-29 19:04 51.39739 -127.98758 34391 ft 420 kts 328°
2026-04-29 19:05 51.44857 -128.03303 34390 ft 421 kts 328°
2026-04-29 19:05 51.49979 -128.07867 34385 ft 421 kts 328°
2026-04-29 19:06 51.55106 -128.12451 34383 ft 422 kts 328°
2026-04-29 19:07 51.62800 -128.19352 34382 ft 422 kts 328°
2026-04-29 19:07 51.67935 -128.23971 34380 ft 423 kts 328°
2026-04-29 19:08 51.73041 -128.28564 34381 ft 423 kts 328°
2026-04-29 19:08 51.78182 -128.33212 34381 ft 424 kts 328°
2026-04-29 19:09 51.83327 -128.37879 34378 ft 425 kts 327°
2026-04-29 19:09 51.88483 -128.42565 34378 ft 425 kts 327°
2026-04-29 19:10 51.93645 -128.47252 34376 ft 426 kts 327°
2026-04-29 19:10 51.98809 -128.51957 34372 ft 426 kts 327°
2026-04-29 19:11 52.03945 -128.56662 34374 ft 427 kts 327°
2026-04-29 19:11 52.09111 -128.61419 34373 ft 427 kts 327°
2026-04-29 19:12 52.14285 -128.66203 34374 ft 428 kts 327°
2026-04-29 19:12 52.18595 -128.70182 34374 ft 428 kts 327°
2026-04-29 19:13 52.23786 -128.74969 34373 ft 429 kts 327°
2026-04-29 19:13 52.28982 -128.79783 34374 ft 429 kts 327°
2026-04-29 19:14 52.34180 -128.84605 34378 ft 430 kts 327°
2026-04-29 19:14 52.39384 -128.89447 34378 ft 430 kts 326°
2026-04-29 19:15 52.44586 -128.94305 34376 ft 431 kts 326°
2026-04-29 19:15 52.49791 -128.99187 34382 ft 431 kts 326°
2026-04-29 19:16 52.54996 -129.04098 34377 ft 432 kts 326°
2026-04-29 19:16 52.60208 -129.09017 34378 ft 432 kts 326°
2026-04-29 19:17 52.65425 -129.13940 34382 ft 432 kts 326°
2026-04-29 19:17 52.70644 -129.18889 34380 ft 433 kts 326°
2026-04-29 19:18 52.75865 -129.23854 34385 ft 433 kts 326°
2026-04-29 19:18 52.81083 -129.28834 34383 ft 434 kts 326°
2026-04-29 19:19 52.86282 -129.33793 34384 ft 434 kts 326°
2026-04-29 19:19 52.91515 -129.38799 34385 ft 434 kts 325°
2026-04-29 19:20 52.96742 -129.43830 34381 ft 435 kts 325°
2026-04-29 19:20 53.01976 -129.48885 34380 ft 435 kts 325°
2026-04-29 19:21 53.07224 -129.53922 34378 ft 436 kts 325°
2026-04-29 19:21 53.12485 -129.58951 34377 ft 436 kts 325°
2026-04-29 19:22 53.17749 -129.64003 34387 ft 437 kts 325°
2026-04-29 19:22 53.23002 -129.69083 34375 ft 437 kts 325°
2026-04-29 19:23 53.28260 -129.74176 34376 ft 437 kts 325°
2026-04-29 19:23 53.33529 -129.79274 34368 ft 437 kts 325°
2026-04-29 19:24 53.38798 -129.84381 34373 ft 438 kts 324°
2026-04-29 19:24 53.44060 -129.89519 34379 ft 438 kts 324°
2026-04-29 19:25 53.49331 -129.94678 34367 ft 438 kts 324°
2026-04-29 19:25 53.54599 -129.99844 34361 ft 439 kts 324°
2026-04-29 19:26 53.59843 -130.04996 34363 ft 439 kts 324°
2026-04-29 19:26 53.65116 -130.10204 34364 ft 440 kts 324°
2026-04-29 19:27 53.70392 -130.15444 34362 ft 440 kts 324°
2026-04-29 19:27 53.75674 -130.20691 34362 ft 441 kts 324°
2026-04-29 19:28 53.80967 -130.25946 34361 ft 441 kts 323°
2026-04-29 19:28 53.86265 -130.31229 34352 ft 442 kts 323°
2026-04-29 19:29 53.91564 -130.36533 34353 ft 443 kts 323°
2026-04-29 19:29 53.96873 -130.41863 34354 ft 443 kts 323°
2026-04-29 19:30 54.02176 -130.47214 34356 ft 444 kts 323°
2026-04-29 19:30 54.07477 -130.52580 34353 ft 444 kts 323°
2026-04-29 19:31 54.12790 -130.57966 34353 ft 444 kts 323°
2026-04-29 19:31 54.18111 -130.63356 34358 ft 445 kts 323°
2026-04-29 19:32 54.23424 -130.68781 34360 ft 445 kts 323°
2026-04-29 19:32 54.28709 -130.74187 34358 ft 445 kts 323°
2026-04-29 19:33 54.34033 -130.79642 34359 ft 446 kts 323°
2026-04-29 19:33 54.39359 -130.85115 34362 ft 446 kts 322°
2026-04-29 19:34 54.44683 -130.90613 34370 ft 446 kts 322°
2026-04-29 19:34 54.50006 -130.96129 34374 ft 447 kts 322°
2026-04-29 19:35 54.55301 -131.01639 34378 ft 447 kts 322°
2026-04-29 19:35 54.60606 -131.07177 34392 ft 445 kts 322°
2026-04-29 19:36 54.65574 -131.13337 34390 ft 437 kts 315°
2026-04-29 19:36 54.70434 -131.19677 34382 ft 441 kts 321°
2026-04-29 19:37 54.75679 -131.25233 34377 ft 442 kts 322°
2026-04-29 19:37 54.80923 -131.30822 34381 ft 442 kts 321°
2026-04-29 19:38 54.86167 -131.36427 34362 ft 443 kts 321°
2026-04-29 19:38 54.91414 -131.42053 34356 ft 443 kts 321°
2026-04-29 19:39 54.96659 -131.47702 34353 ft 444 kts 321°
2026-04-29 19:39 55.01912 -131.53359 34349 ft 444 kts 321°
2026-04-29 19:40 55.07168 -131.59038 34355 ft 445 kts 321°
2026-04-29 19:40 55.12502 -131.64575 34356 ft 447 kts 322°
2026-04-29 19:41 55.17880 -131.70031 34355 ft 447 kts 322°
2026-04-29 19:41 55.23257 -131.75532 34363 ft 447 kts 322°
2026-04-29 19:42 55.28612 -131.81086 34367 ft 447 kts 322°
2026-04-29 19:42 55.33926 -131.86641 34370 ft 448 kts 322°
2026-04-29 19:42 55.36604 -131.89441 34181 ft 449 kts 322°
2026-04-29 19:43 55.39294 -131.92254 33907 ft 449 kts 322°
2026-04-29 19:43 55.41987 -131.95066 33639 ft 451 kts 322°
2026-04-29 19:43 55.44685 -131.97886 33341 ft 452 kts 322°
2026-04-29 19:43 55.47402 -132.00737 32355 ft 457 kts 323°
2026-04-29 19:44 55.50145 -132.03624 31372 ft 461 kts 323°
2026-04-29 19:44 55.52907 -132.06536 30399 ft 465 kts 324°
2026-04-29 19:44 55.55707 -132.09493 29170 ft 471 kts 324°
2026-04-29 19:44 55.58529 -132.12478 28040 ft 474 kts 324°
2026-04-29 19:45 55.61369 -132.15485 26840 ft 479 kts 325°
2026-04-29 19:45 55.64251 -132.18535 25567 ft 486 kts 325°
2026-04-29 19:45 55.67174 -132.21632 24333 ft 492 kts 325°
2026-04-29 19:45 55.70128 -132.24770 23038 ft 497 kts 326°
2026-04-29 19:46 55.73077 -132.27904 22261 ft 490 kts 326°
2026-04-29 19:46 55.75996 -132.31014 21332 ft 487 kts 326°
2026-04-29 19:46 55.78852 -132.34060 20420 ft 472 kts 326°
2026-04-29 19:46 55.81646 -132.37045 19358 ft 462 kts 326°
2026-04-29 19:47 55.84357 -132.39947 18541 ft 448 kts 325°
2026-04-29 19:47 55.86997 -132.42780 17411 ft 440 kts 325°
2026-04-29 19:47 55.89574 -132.45556 16566 ft 425 kts 325°
2026-04-29 19:47 55.92074 -132.48252 15847 ft 418 kts 325°
2026-04-29 19:48 55.94546 -132.50930 15143 ft 414 kts 325°
2026-04-29 19:48 55.96165 -132.52691 14683 ft 411 kts 325°
2026-04-29 19:48 55.99434 -132.56246 13615 ft 412 kts 325°
2026-04-29 19:48 56.01871 -132.58894 12988 ft 408 kts 325°
2026-04-29 19:49 56.04285 -132.61512 12376 ft 404 kts 326°
2026-04-29 19:49 56.06675 -132.64104 11742 ft 400 kts 326°
2026-04-29 19:49 56.09035 -132.66669 11301 ft 391 kts 326°
2026-04-29 19:49 56.11284 -132.69114 11177 ft 375 kts 325°
2026-04-29 19:50 56.13465 -132.71490 11050 ft 360 kts 325°
2026-04-29 19:50 56.15563 -132.73780 10923 ft 346 kts 325°
2026-04-29 19:50 56.17576 -132.75984 10802 ft 333 kts 325°
2026-04-29 19:50 56.19521 -132.78119 10687 ft 321 kts 325°
2026-04-29 19:51 56.21395 -132.80179 10564 ft 311 kts 324°
2026-04-29 19:51 56.23214 -132.82181 10353 ft 304 kts 324°
2026-04-29 19:51 56.25005 -132.84151 10137 ft 301 kts 324°
2026-04-29 19:51 56.26786 -132.86114 9827 ft 298 kts 325°
2026-04-29 19:52 56.28546 -132.88062 9494 ft 296 kts 324°
2026-04-29 19:52 56.30296 -132.89998 9134 ft 295 kts 325°
2026-04-29 19:52 56.32041 -132.91930 8760 ft 294 kts 325°
2026-04-29 19:52 56.33782 -132.93861 8371 ft 293 kts 325°
2026-04-29 19:53 56.35510 -132.95779 8022 ft 290 kts 325°
2026-04-29 19:53 56.37189 -132.97640 7994 ft 275 kts 325°
2026-04-29 19:53 56.38794 -132.99416 7871 ft 265 kts 325°
2026-04-29 19:53 56.40314 -133.01099 7743 ft 256 kts 325°
2026-04-29 19:54 56.43318 -133.04443 7264 ft 251 kts 325°
2026-04-29 19:54 56.44801 -133.06099 6982 ft 250 kts 325°
2026-04-29 19:54 56.46257 -133.07725 6717 ft 249 kts 325°
2026-04-29 19:55 56.47814 -133.09109 6428 ft 251 kts 344°
2026-04-29 19:55 56.49546 -133.09231 6159 ft 251 kts 14°
2026-04-29 19:55 56.51083 -133.07875 6014 ft 246 kts 45°
2026-04-29 19:55 56.52058 -133.05431 5993 ft 238 kts 74°
2026-04-29 19:56 56.52311 -133.02557 6004 ft 228 kts 101°
2026-04-29 19:56 56.51873 -132.99877 6004 ft 219 kts 125°
2026-04-29 19:56 56.50899 -132.97840 6003 ft 213 kts 145°
2026-04-29 19:56 56.49712 -132.96251 6004 ft 213 kts 149°
2026-04-29 19:57 56.48488 -132.94742 6004 ft 213 kts 149°
2026-04-29 19:57 56.47672 -132.93754 6001 ft 213 kts 149°
2026-04-29 19:57 56.46025 -132.91758 6007 ft 213 kts 149°
2026-04-29 19:57 56.44777 -132.90304 6002 ft 213 kts 156°
2026-04-29 19:58 56.43372 -132.89560 6005 ft 209 kts 177°
2026-04-29 19:58 56.41941 -132.89860 6007 ft 209 kts 198°
2026-04-29 19:58 56.40682 -132.91175 6004 ft 212 kts 220°
2026-04-29 19:58 56.39807 -132.93334 6003 ft 218 kts 242°
2026-04-29 19:59 56.39497 -132.96059 6003 ft 228 kts 267°
2026-04-29 19:59 56.39884 -132.98866 6004 ft 237 kts 293°
2026-04-29 19:59 56.40938 -133.01136 6004 ft 245 kts 319°
2026-04-29 19:59 56.42327 -133.02941 6006 ft 245 kts 322°
2026-04-29 20:00 56.43702 -133.04628 5998 ft 235 kts 322°
2026-04-29 20:00 56.45098 -133.06152 5992 ft 236 kts 336°
2026-04-29 20:00 56.46704 -133.06649 5829 ft 236 kts
2026-04-29 20:00 56.48244 -133.05788 5593 ft 230 kts 35°
2026-04-29 20:01 56.49447 -133.04011 5393 ft 219 kts 46°
2026-04-29 20:01 56.50216 -133.02771 5125 ft 219 kts 46°
2026-04-29 20:01 56.51333 -133.00956 4813 ft 217 kts 46°
2026-04-29 20:01 56.52469 -132.99105 4800 ft 217 kts 46°
2026-04-29 20:02 56.53576 -132.97295 4798 ft 217 kts 46°
2026-04-29 20:02 56.54713 -132.95434 4793 ft 217 kts 46°
2026-04-29 20:02 56.55821 -132.93618 4796 ft 217 kts 46°
2026-04-29 20:02 56.56576 -132.92382 4799 ft 217 kts 46°
2026-04-29 20:03 56.58071 -132.89935 4812 ft 217 kts 46°
2026-04-29 20:03 56.59190 -132.88074 4795 ft 218 kts 49°
2026-04-29 20:03 56.60012 -132.85834 4806 ft 211 kts 76°
2026-04-29 20:03 56.60194 -132.83316 4717 ft 195 kts 102°
2026-04-29 20:04 56.59999 -132.80896 4426 ft 192 kts 104°
2026-04-29 20:04 56.59796 -132.78498 4387 ft 191 kts 105°
2026-04-29 20:04 56.59597 -132.76155 4404 ft 186 kts 104°
2026-04-29 20:04 56.59401 -132.73847 4414 ft 185 kts 104°
2026-04-29 20:05 56.59219 -132.71534 4406 ft 185 kts 101°
2026-04-29 20:05 56.59000 -132.69328 4377 ft 170 kts 116°
2026-04-29 20:05 56.58524 -132.67404 4197 ft 165 kts 122°
2026-04-29 20:05 56.57984 -132.65610 3990 ft 157 kts 124°
2026-04-29 20:06 56.57464 -132.63971 3744 ft 144 kts 124°
2026-04-29 20:06 56.56966 -132.62436 3553 ft 139 kts 124°
2026-04-29 20:06 56.56468 -132.60937 3328 ft 138 kts 124°
2026-04-29 20:06 56.55977 -132.59469 3115 ft 135 kts 124°
2026-04-29 20:07 56.55489 -132.58018 2905 ft 135 kts 124°
2026-04-29 20:07 56.55006 -132.56566 2697 ft 135 kts 123°
2026-04-29 20:07 56.54523 -132.55106 2494 ft 135 kts 123°
2026-04-29 20:07 56.54031 -132.53643 2281 ft 137 kts 123°
2026-04-29 20:08 56.53534 -132.52175 2079 ft 136 kts 123°
2026-04-29 20:08 56.53209 -132.51207 1939 ft 135 kts 122°
2026-04-29 20:08 56.52555 -132.49249 1635 ft 136 kts 121°
2026-04-29 20:08 56.52064 -132.47786 1425 ft 136 kts 122°
2026-04-29 20:09 56.51565 -132.46323 1217 ft 137 kts 121°
2026-04-29 20:09 56.51071 -132.44848 1004 ft 137 kts 121°
2026-04-29 20:09 56.50580 -132.43374 820 ft 137 kts 121°
2026-04-29 20:09 56.50082 -132.41892 574 ft 138 kts 122°
2026-04-29 20:10 56.49592 -132.40434 316 ft 137 kts 120°
2026-04-29 20:10 56.49104 -132.38941 124 ft 138 kts 122°
2026-04-29 20:10 56.48606 -132.37477 34 ft 128 kts 122°
2026-04-29 20:10 56.48381 -132.36794 36 ft 10 kts 121°
2026-04-29 20:11 56.48374 -132.36822 36 ft 7 kts 303°
2026-04-29 20:11 56.48421 -132.36954 36 ft 19 kts 301°
2026-04-29 20:11 56.48493 -132.37170 35 ft 20 kts 301°
2026-04-29 20:11 56.48512 -132.37363 35 ft 11 kts 270°
2026-04-29 20:12 56.48512 -132.37467 36 ft 6 kts 269°
2026-04-29 20:12 56.48511 -132.37535 36 ft 5 kts 269°
2026-04-29 20:12 56.48510 -132.37588 36 ft 4 kts 269°
2026-04-29 20:12 56.48510 -132.37628 36 ft 3 kts 269°
2026-04-29 20:13 56.48509 -132.37657 36 ft 2 kts 268°
2026-04-29 20:13 56.48508 -132.37678 36 ft 2 kts 264°
2026-04-29 20:13 56.48504 -132.37725 36 ft 5 kts 259°
2026-04-29 20:13 56.48497 -132.37761 36 ft 1 kts 251°
2026-04-29 20:14 56.48496 -132.37769 34 ft 1 kts 251°
2026-04-29 20:14 56.48491 -132.37794 36 ft 3 kts 251°
2026-04-29 20:14 56.48489 -132.37806 36 ft 0 kts 251°